Time,TemperatureF,DewpointF,PressureIn,WindDirection,WindDirectionDegrees,WindSpeedMPH,WindSpeedGustMPH,Humidity,HourlyPrecipIn,Conditions,Clouds,dailyrainin,SoftwareType,DateUTC
2013-05-07 00:02:00,61.0,60.7,29.98,NE,45,5.4,8.3,99,0.00,,,0.00,pywws,2013-05-06 22:02:00,
2013-05-07 00:12:00,60.8,60.5,29.98,NE,45,3.8,6.9,99,0.00,,,0.00,pywws,2013-05-06 22:12:00,
2013-05-07 00:22:00,60.6,60.3,29.98,East,90,1.6,3.1,99,0.00,,,0.00,pywws,2013-05-06 22:22:00,
2013-05-07 00:32:00,60.8,60.5,29.98,East,90,2.2,4.5,99,0.00,,,0.00,pywws,2013-05-06 22:32:00,
2013-05-07 00:42:00,60.8,60.5,29.98,East,90,3.1,6.0,99,0.00,,,0.00,pywws,2013-05-06 22:42:00,
2013-05-07 00:52:00,60.6,60.3,29.98,NE,45,2.2,5.4,99,0.00,,,0.00,pywws,2013-05-06 22:52:00,
2013-05-07 01:02:00,60.4,60.2,29.98,SE,135,1.6,3.8,99,0.00,,,0.00,pywws,2013-05-06 23:02:00,
2013-05-07 01:12:00,60.4,60.2,29.97,NE,45,3.1,4.5,99,0.00,,,0.00,pywws,2013-05-06 23:12:00,
2013-05-07 01:22:00,60.3,60.0,29.97,East,90,2.2,4.5,99,0.00,,,0.00,pywws,2013-05-06 23:22:00,
2013-05-07 01:32:00,60.3,60.0,29.97,NE,45,2.2,4.5,99,0.00,,,0.00,pywws,2013-05-06 23:32:00,
2013-05-07 01:42:00,60.1,59.8,29.97,NNE,23,3.1,4.5,99,0.00,,,0.00,pywws,2013-05-06 23:42:00,
2013-05-07 01:52:00,59.7,59.4,29.97,East,90,2.2,3.8,99,0.00,,,0.00,pywws,2013-05-06 23:52:00,
2013-05-07 02:02:00,59.5,59.3,29.97,East,90,3.1,6.0,99,0.00,,,0.00,pywws,2013-05-07 00:02:00,
2013-05-07 02:12:00,59.4,59.1,29.96,NE,45,5.4,9.2,99,0.00,,,0.00,pywws,2013-05-07 00:12:00,
2013-05-07 02:22:00,59.4,59.1,29.96,NE,45,3.8,9.2,99,0.00,,,0.00,pywws,2013-05-07 00:22:00,
2013-05-07 02:32:00,59.4,59.1,29.96,NE,45,3.8,6.0,99,0.00,,,0.00,pywws,2013-05-07 00:32:00,
2013-05-07 02:42:00,59.4,59.1,29.96,NE,45,3.8,6.0,99,0.00,,,0.00,pywws,2013-05-07 00:42:00,
2013-05-07 02:52:00,59.0,58.7,29.96,NE,45,3.8,6.9,99,0.00,,,0.00,pywws,2013-05-07 00:52:00,
2013-05-07 03:02:00,59.0,58.7,29.96,NE,45,3.1,5.4,99,0.00,,,0.00,pywws,2013-05-07 01:02:00,
2013-05-07 03:12:00,58.8,58.5,29.97,East,90,2.2,4.5,99,0.00,,,0.00,pywws,2013-05-07 01:12:00,
2013-05-07 03:22:00,58.5,58.2,29.96,East,90,2.2,3.8,99,0.00,,,0.00,pywws,2013-05-07 01:22:00,
2013-05-07 03:32:00,58.1,57.8,29.96,NE,45,3.1,4.5,99,0.00,,,0.00,pywws,2013-05-07 01:32:00,
2013-05-07 03:42:00,58.3,58.0,29.96,NE,45,3.8,7.6,99,0.00,,,0.00,pywws,2013-05-07 01:42:00,
2013-05-07 03:52:00,58.5,58.2,29.96,NE,45,3.1,4.5,99,0.00,,,0.00,pywws,2013-05-07 01:52:00,
2013-05-07 04:02:00,58.1,57.8,29.96,NE,45,3.1,6.0,99,0.00,,,0.00,pywws,2013-05-07 02:02:00,
2013-05-07 04:12:00,57.9,57.6,29.95,ESE,113,3.8,6.9,99,0.00,,,0.00,pywws,2013-05-07 02:12:00,
2013-05-07 04:22:00,58.1,57.8,29.95,East,90,3.8,6.9,99,0.00,,,0.00,pywws,2013-05-07 02:22:00,
2013-05-07 04:32:00,58.1,57.8,29.96,East,90,3.8,7.6,99,0.00,,,0.00,pywws,2013-05-07 02:32:00,
2013-05-07 04:36:00,57.9,57.6,29.95,NE,45,2.2,4.5,99,0.00,,,0.00,pywws,2013-05-07 02:36:00,
2013-05-07 04:42:00,57.9,57.6,29.96,NE,45,1.6,3.8,99,0.00,,,0.00,pywws,2013-05-07 02:42:00,
2013-05-07 04:52:00,57.9,57.6,29.96,East,90,1.6,3.1,99,0.00,,,0.00,pywws,2013-05-07 02:52:00,
2013-05-07 05:02:00,57.9,57.6,29.96,East,90,2.2,4.5,99,0.00,,,0.00,pywws,2013-05-07 03:02:00,
2013-05-07 05:12:00,57.7,57.5,29.96,NE,45,2.2,6.0,99,0.00,,,0.00,pywws,2013-05-07 03:12:00,
2013-05-07 05:22:00,57.9,57.6,29.96,NE,45,0.7,3.8,99,0.00,,,0.00,pywws,2013-05-07 03:22:00,
2013-05-07 05:32:00,57.9,57.6,29.96,East,90,2.2,5.4,99,0.00,,,0.00,pywws,2013-05-07 03:32:00,
2013-05-07 05:42:00,58.5,58.2,29.96,NE,45,1.6,4.5,99,0.00,,,0.00,pywws,2013-05-07 03:42:00,
2013-05-07 05:52:00,58.6,58.4,29.96,East,90,1.6,3.8,99,0.00,,,0.00,pywws,2013-05-07 03:52:00,
2013-05-07 06:02:00,58.5,58.2,29.96,NE,45,2.2,4.5,99,0.00,,,0.00,pywws,2013-05-07 04:02:00,
2013-05-07 06:12:00,58.3,58.0,29.96,South,180,0.0,2.2,99,0.00,,,0.00,pywws,2013-05-07 04:12:00,
2013-05-07 06:32:00,57.7,57.5,29.96,NE,45,2.2,4.5,99,0.00,,,0.00,pywws,2013-05-07 04:32:00,
2013-05-07 06:42:00,57.4,57.1,29.96,NE,45,3.1,4.5,99,0.00,,,0.00,pywws,2013-05-07 04:42:00,
2013-05-07 06:52:00,57.7,57.5,29.96,NE,45,2.2,4.5,99,0.00,,,0.00,pywws,2013-05-07 04:52:00,
2013-05-07 07:02:00,57.7,57.5,29.96,NE,45,3.1,6.9,99,0.00,,,0.00,pywws,2013-05-07 05:02:00,
2013-05-07 07:11:00,57.9,57.6,29.96,NE,45,4.5,6.0,99,0.00,,,0.00,pywws,2013-05-07 05:11:00,
2013-05-07 07:12:00,57.9,57.6,29.96,NE,45,4.5,6.0,99,0.00,,,0.00,pywws,2013-05-07 05:12:00,
2013-05-07 07:32:00,58.1,57.8,29.96,East,90,0.7,1.6,99,0.00,,,0.00,pywws,2013-05-07 05:32:00,
2013-05-07 07:42:00,58.3,58.0,29.96,North,0,3.1,5.4,99,0.00,,,0.00,pywws,2013-05-07 05:42:00,
2013-05-07 07:52:00,58.3,58.0,29.96,NE,45,3.8,6.0,99,0.00,,,0.00,pywws,2013-05-07 05:52:00,
2013-05-07 08:02:00,58.6,58.4,29.96,NE,45,3.8,6.9,99,0.00,,,0.00,pywws,2013-05-07 06:02:00,
2013-05-07 08:22:00,59.4,59.1,29.96,NE,45,3.1,5.4,99,0.00,,,0.00,pywws,2013-05-07 06:22:00,
2013-05-07 08:32:00,59.7,59.4,29.97,East,90,2.2,7.6,99,0.00,,,0.00,pywws,2013-05-07 06:32:00,
2013-05-07 08:43:00,59.9,59.6,29.97,NE,45,3.8,6.0,99,0.00,,,0.00,pywws,2013-05-07 06:43:00,
2013-05-07 08:52:00,60.4,60.2,29.96,NE,45,2.2,9.2,99,0.00,,,0.00,pywws,2013-05-07 06:52:00,
2013-05-07 09:02:00,60.8,60.5,29.96,North,0,3.1,6.0,99,0.00,,,0.00,pywws,2013-05-07 07:02:00,
2013-05-07 09:12:00,61.7,61.4,29.96,NE,45,2.2,4.5,99,0.00,,,0.00,pywws,2013-05-07 07:12:00,
2013-05-07 09:22:00,63.0,62.7,29.96,NE,45,3.8,6.9,99,0.00,,,0.00,pywws,2013-05-07 07:22:00,
2013-05-07 09:32:00,64.4,64.1,29.96,East,90,2.2,10.7,99,0.00,,,0.00,pywws,2013-05-07 07:32:00,
2013-05-07 09:42:00,66.2,65.9,29.97,East,90,1.6,4.5,99,0.00,,,0.00,pywws,2013-05-07 07:42:00,
2013-05-07 09:52:00,67.3,67.0,29.97,East,90,2.2,3.8,99,0.00,,,0.00,pywws,2013-05-07 07:52:00,
2013-05-07 10:02:00,68.0,67.7,29.97,East,90,3.1,6.9,99,0.00,,,0.00,pywws,2013-05-07 08:02:00,
2013-05-07 10:12:00,66.9,66.6,29.96,NE,45,3.1,7.6,99,0.00,,,0.00,pywws,2013-05-07 08:12:00,
2013-05-07 10:22:00,65.7,65.4,29.97,SE,135,3.1,6.9,99,0.00,,,0.00,pywws,2013-05-07 08:22:00,
2013-05-07 10:32:00,66.9,66.6,29.97,East,90,1.6,4.5,99,0.00,,,0.00,pywws,2013-05-07 08:32:00,
2013-05-07 10:42:00,66.9,66.6,29.97,SE,135,2.2,8.3,99,0.00,,,0.00,pywws,2013-05-07 08:42:00,
2013-05-07 10:52:00,69.1,68.8,29.97,East,90,5.4,9.8,99,0.00,,,0.00,pywws,2013-05-07 08:52:00,
2013-05-07 11:02:00,68.7,68.4,29.97,East,90,3.8,9.8,99,0.00,,,0.00,pywws,2013-05-07 09:02:00,
2013-05-07 11:12:00,68.9,68.6,29.97,East,90,2.2,5.4,99,0.00,,,0.00,pywws,2013-05-07 09:12:00,
2013-05-07 11:22:00,68.4,68.1,29.97,ENE,68,3.8,9.8,99,0.00,,,0.00,pywws,2013-05-07 09:22:00,
2013-05-07 11:32:00,69.3,69.0,29.97,SSE,158,2.2,5.4,99,0.00,,,0.00,pywws,2013-05-07 09:32:00,
2013-05-07 11:42:00,68.2,67.9,29.97,SSE,158,2.2,5.4,99,0.00,,,0.00,pywws,2013-05-07 09:42:00,
2013-05-07 11:52:00,68.2,67.9,29.97,SSE,158,1.6,7.6,99,0.00,,,0.00,pywws,2013-05-07 09:52:00,
2013-05-07 12:02:00,68.2,67.9,29.97,East,90,5.4,10.7,99,0.00,,,0.00,pywws,2013-05-07 10:02:00,
2013-05-07 12:12:00,67.5,67.2,29.97,ENE,68,1.6,6.0,99,0.00,,,0.00,pywws,2013-05-07 10:12:00,
2013-05-07 12:22:00,68.2,67.9,29.97,East,90,3.8,6.9,99,0.00,,,0.00,pywws,2013-05-07 10:22:00,
2013-05-07 12:32:00,68.5,68.2,29.97,SE,135,1.6,6.0,99,0.00,,,0.00,pywws,2013-05-07 10:32:00,
2013-05-07 12:42:00,68.4,68.1,29.97,South,180,2.2,3.1,99,0.00,,,0.00,pywws,2013-05-07 10:42:00,
2013-05-07 12:52:00,70.5,70.2,29.97,East,90,3.1,6.9,99,0.00,,,0.00,pywws,2013-05-07 10:52:00,
2013-05-07 13:02:00,70.5,68.1,29.96,North,0,3.1,6.9,92,0.00,,,0.00,pywws,2013-05-07 11:02:00,
2013-05-07 13:12:00,70.7,69.5,29.96,NW,315,0.7,3.1,96,0.00,,,0.00,pywws,2013-05-07 11:12:00,
2013-05-07 13:22:00,70.5,68.4,29.96,NW,315,3.1,6.9,93,0.00,,,0.00,pywws,2013-05-07 11:22:00,
2013-05-07 13:32:00,72.7,69.2,29.96,NE,45,1.6,5.4,89,0.00,,,0.00,pywws,2013-05-07 11:32:00,
2013-05-07 13:42:00,72.7,68.2,29.96,SE,135,1.6,3.8,86,0.00,,,0.00,pywws,2013-05-07 11:42:00,
2013-05-07 13:52:00,71.4,67.0,29.96,East,90,3.8,7.6,86,0.00,,,0.00,pywws,2013-05-07 11:52:00,
2013-05-07 14:02:00,72.0,67.2,29.96,East,90,3.8,8.3,85,0.00,,,0.00,pywws,2013-05-07 12:02:00,
2013-05-07 14:12:00,70.7,67.9,29.96,ENE,68,3.8,6.9,91,0.00,,,0.00,pywws,2013-05-07 12:12:00,
2013-05-07 14:22:00,71.2,67.5,29.96,SE,135,5.4,8.3,88,0.00,,,0.00,pywws,2013-05-07 12:22:00,
2013-05-07 14:32:00,70.7,67.6,29.95,SSW,203,3.1,7.6,90,0.00,,,0.00,pywws,2013-05-07 12:32:00,
2013-05-07 14:42:00,72.7,67.9,29.95,ENE,68,2.2,8.3,85,0.00,,,0.00,pywws,2013-05-07 12:42:00,
2013-05-07 14:52:00,72.1,66.7,29.95,South,180,5.4,8.3,83,0.00,,,0.00,pywws,2013-05-07 12:52:00,
2013-05-07 15:02:00,73.0,66.5,29.94,SE,135,4.5,10.7,80,0.00,,,0.00,pywws,2013-05-07 13:02:00,
2013-05-07 15:12:00,74.5,66.8,29.94,South,180,3.1,6.9,77,0.00,,,0.00,pywws,2013-05-07 13:12:00,
2013-05-07 15:22:00,73.4,67.2,29.94,SE,135,3.8,7.6,81,0.00,,,0.00,pywws,2013-05-07 13:22:00,
2013-05-07 15:33:00,73.6,65.2,29.94,NE,45,3.8,9.2,75,0.00,,,0.00,pywws,2013-05-07 13:33:00,
2013-05-07 15:42:00,73.2,65.6,29.94,SE,135,2.2,5.4,77,0.00,,,0.00,pywws,2013-05-07 13:42:00,
2013-05-07 15:53:00,73.4,65.0,29.93,SE,135,3.8,12.1,75,0.00,,,0.00,pywws,2013-05-07 13:53:00,
2013-05-07 16:02:00,74.7,65.8,29.93,SE,135,5.4,10.7,74,0.00,,,0.00,pywws,2013-05-07 14:02:00,
2013-05-07 16:13:00,74.7,65.4,29.93,South,180,6.0,13.6,73,0.00,,,0.00,pywws,2013-05-07 14:13:00,
2013-05-07 16:22:00,75.4,66.9,29.93,North,0,2.2,5.4,75,0.00,,,0.00,pywws,2013-05-07 14:22:00,
2013-05-07 16:32:00,75.2,64.7,29.92,SE,135,3.1,7.6,70,0.00,,,0.00,pywws,2013-05-07 14:32:00,
2013-05-07 16:42:00,75.2,65.5,29.92,SE,135,2.2,7.6,72,0.00,,,0.00,pywws,2013-05-07 14:42:00,
2013-05-07 16:52:00,75.7,65.2,29.91,ENE,68,3.8,6.9,70,0.00,,,0.00,pywws,2013-05-07 14:52:00,
2013-05-07 17:02:00,75.0,65.0,29.92,East,90,3.1,4.5,71,0.00,,,0.00,pywws,2013-05-07 15:02:00,
2013-05-07 17:12:00,74.5,65.6,29.91,South,180,1.6,7.6,74,0.00,,,0.00,pywws,2013-05-07 15:12:00,
2013-05-07 17:22:00,72.9,63.7,29.91,ESE,113,5.4,11.4,73,0.00,,,0.00,pywws,2013-05-07 15:22:00,
2013-05-07 17:32:00,73.0,65.0,29.91,SW,225,2.2,5.4,76,0.00,,,0.00,pywws,2013-05-07 15:32:00,
2013-05-07 17:42:00,73.4,63.8,29.91,SE,135,6.9,10.7,72,0.00,,,0.00,pywws,2013-05-07 15:42:00,
2013-05-07 17:52:00,73.4,64.2,29.91,SE,135,4.5,7.6,73,0.00,,,0.00,pywws,2013-05-07 15:52:00,
2013-05-07 18:02:00,72.3,64.3,29.91,South,180,5.4,9.2,76,0.00,,,0.00,pywws,2013-05-07 16:02:00,
2013-05-07 18:12:00,72.7,64.7,29.91,SSE,158,5.4,12.1,76,0.00,,,0.00,pywws,2013-05-07 16:12:00,
2013-05-07 18:22:00,72.5,63.7,29.91,SSW,203,4.5,10.7,74,0.00,,,0.00,pywws,2013-05-07 16:22:00,
2013-05-07 18:32:00,72.0,64.0,29.91,ESE,113,6.0,11.4,76,0.00,,,0.00,pywws,2013-05-07 16:32:00,
2013-05-07 18:42:00,71.4,63.8,29.91,South,180,3.8,7.6,77,0.00,,,0.00,pywws,2013-05-07 16:42:00,
2013-05-07 18:52:00,70.3,63.9,29.91,ESE,113,2.2,6.0,80,0.00,,,0.00,pywws,2013-05-07 16:52:00,
2013-05-07 19:02:00,68.9,63.9,29.91,East,90,1.6,3.8,84,0.00,,,0.00,pywws,2013-05-07 17:02:00,
2013-05-07 19:12:00,68.4,64.7,29.91,ESE,113,0.7,1.6,88,0.00,,,0.00,pywws,2013-05-07 17:12:00,
2013-05-07 19:22:00,68.0,65.3,29.91,South,180,0.0,2.2,91,0.00,,,0.00,pywws,2013-05-07 17:22:00,
2013-05-07 19:32:00,67.6,65.8,29.91,SE,135,0.7,2.2,94,0.00,,,0.00,pywws,2013-05-07 17:32:00,
2013-05-07 19:42:00,67.1,66.5,29.92,East,90,1.6,3.8,98,0.00,,,0.00,pywws,2013-05-07 17:42:00,
2013-05-07 19:52:00,66.9,66.3,29.91,SE,135,1.6,6.0,98,0.00,,,0.00,pywws,2013-05-07 17:52:00,
2013-05-07 20:02:00,66.6,66.0,29.91,NE,45,1.6,3.1,98,0.00,,,0.00,pywws,2013-05-07 18:02:00,
2013-05-07 20:12:00,66.0,65.4,29.91,ENE,68,1.6,4.5,98,0.00,,,0.00,pywws,2013-05-07 18:12:00,
2013-05-07 20:22:00,65.3,65.0,29.92,NE,45,3.1,6.0,99,0.00,,,0.00,pywws,2013-05-07 18:22:00,
2013-05-07 20:32:00,64.8,64.5,29.92,East,90,3.8,12.1,99,0.00,,,0.00,pywws,2013-05-07 18:32:00,
2013-05-07 20:42:00,64.2,63.9,29.93,NE,45,2.2,4.5,99,0.00,,,0.00,pywws,2013-05-07 18:42:00,
2013-05-07 20:52:00,63.7,63.4,29.93,East,90,1.6,3.8,99,0.00,,,0.00,pywws,2013-05-07 18:52:00,
2013-05-07 21:02:00,63.3,63.0,29.93,ESE,113,1.6,4.5,99,0.00,,,0.00,pywws,2013-05-07 19:02:00,
2013-05-07 21:12:00,63.0,62.7,29.93,NE,45,1.6,3.1,99,0.00,,,0.00,pywws,2013-05-07 19:12:00,
2013-05-07 21:22:00,62.4,62.1,29.93,East,90,2.2,6.9,99,0.00,,,0.00,pywws,2013-05-07 19:22:00,
2013-05-07 21:32:00,62.1,61.8,29.93,SE,135,1.6,6.9,99,0.00,,,0.00,pywws,2013-05-07 19:32:00,
2013-05-07 21:42:00,61.9,61.6,29.93,East,90,1.6,4.5,99,0.00,,,0.00,pywws,2013-05-07 19:42:00,
2013-05-07 21:52:00,61.9,61.6,29.93,SE,135,1.6,3.1,99,0.00,,,0.00,pywws,2013-05-07 19:52:00,
2013-05-07 22:02:00,61.5,61.2,29.94,South,180,0.7,4.5,99,0.00,,,0.00,pywws,2013-05-07 20:02:00,
2013-05-07 22:12:00,61.3,61.1,29.93,East,90,1.6,3.1,99,0.00,,,0.00,pywws,2013-05-07 20:12:00,
2013-05-07 22:22:00,61.3,61.1,29.94,East,90,0.7,3.1,99,0.00,,,0.00,pywws,2013-05-07 20:22:00,
2013-05-07 22:32:00,61.2,60.9,29.94,North,0,1.6,3.8,99,0.00,,,0.00,pywws,2013-05-07 20:32:00,
2013-05-07 22:42:00,61.0,60.7,29.94,SE,135,1.6,3.8,99,0.00,,,0.00,pywws,2013-05-07 20:42:00,
2013-05-07 22:52:00,60.8,60.5,29.93,ENE,68,0.7,2.2,99,0.00,,,0.00,pywws,2013-05-07 20:52:00,
2013-05-07 23:02:00,60.8,60.5,29.94,NE,45,0.0,2.2,99,0.00,,,0.00,pywws,2013-05-07 21:02:00,
2013-05-07 23:12:00,61.0,60.7,29.94,South,180,0.7,3.1,99,0.00,,,0.00,pywws,2013-05-07 21:12:00,
2013-05-07 23:22:00,61.2,60.9,29.94,SW,225,0.7,2.2,99,0.00,,,0.00,pywws,2013-05-07 21:22:00,
2013-05-07 23:32:00,61.3,61.1,29.94,SSE,158,1.6,4.5,99,0.00,,,0.00,pywws,2013-05-07 21:32:00,
2013-05-07 23:42:00,61.3,61.1,29.94,South,180,0.0,2.2,99,0.00,,,0.00,pywws,2013-05-07 21:42:00,
2013-05-07 23:52:00,61.2,60.9,29.94,SSE,158,0.7,1.6,99,0.00,,,0.00,pywws,2013-05-07 21:52:00,